sat.trackr.live / text

‹ back to catalog

STARLINK-32448

NORAD 62206 · 2024-229Q

PAYLOAD ACTIVE UNKNOWN

§ Identity

Operator
Country
US
Launch date
2024-12-04
Launch site
AFETR
Launch vehicle
Mass (kg)
RCS (m²)

Purposes: comms

External: N2YO · Heavens-Above · Gunter

§ Orbital elements

Epoch: 2026-09-21T06:00:41.740704Z

Period
94.27 min
Inclination
42.9970°
Eccentricity
0.0001072
Mean motion
15.27590128 rev/d
Perigee alt
482.3 km
Apogee alt
483.8 km
Semi-major
6,861.2 km
B*
4.3928e-4
RAAN
245.9610°
Arg perigee
270.6616°
Mean anomaly
89.4113°
Rev number
10,047

§ Raw data

STARLINK-324481 62206U 24229Q   26264.25048311  .00011849  00000+0  43928-3 0  99902 62206  42.9970 245.9610 0001072 270.6616  89.4113 15.27590128100472

JSON: /api/v1/satellites/62206 · /tle

For live sub-satellite position, see the globe view (requires WebGL).

§ Visibility from observer

Set your observer location to see the next 7 days of passes ≥ 10°. The values pass through the URL so the page stays shareable.

No JS? Fill the form by hand. The geolocation button needs JavaScript.